Weather reports worldwide

Advertisment
Wainfleet, United Kingdom (3392): temperature & dewpoint: 10.08.2018 12:00:00 - 16.08.2018 12:00:00 (BST)Wainfleet, United Kingdom (3392): temperature -20cm & temperature -100cm: 10.08.2018 12:00:00 - 16.08.2018 12:00:00 (BST)Wainfleet, United Kingdom (3392): wind speed & gusts: 10.08.2018 12:00:00 - 16.08.2018 12:00:00 (BST)Wainfleet, United Kingdom (3392): wind direction: 10.08.2018 12:00:00 - 16.08.2018 12:00:00 (BST)Wainfleet, United Kingdom (3392): reduced air pressure: 10.08.2018 12:00:00 - 16.08.2018 12:00:00 (BST)Wainfleet, United Kingdom (3392): visibility: 10.08.2018 12:00:00 - 16.08.2018 12:00:00 (BST)Wainfleet, United Kingdom (3392): precipitation: 10.08.2018 12:00:00 - 16.08.2018 12:00:00 (BST)
Date & Time tt [°C] td [°C] tt -20cm [°C] tt -100cm [°C] ff [km/h] ff [kn] fx [km/h] fx [kn] dd ppp [hPa] vv [km] rr [mm]
16.08.2018 12:00:00 16,9 15,7 - - 21 11 - - SW 1010,5 22 0,0
16.08.2018 11:00:00 17,1 16,2 - - 26 14 - - SW 1010,5 23 0,8
16.08.2018 10:00:00 16,7 15,6 19,0 17,4 28 15 - - SW 1010,4 12 0,6
16.08.2018 09:00:00 16,7 16,0 - - 28 15 - - SW 1010,0 16 1,0
16.08.2018 08:00:00 16,3 15,7 - - 26 14 46 25 WSW 1010,2 11 3,2
16.08.2018 07:00:00 17,0 16,1 - - 29 16 - - SSW 1009,8 5 0,4
16.08.2018 06:00:00 17,8 15,6 - - 28 15 - - SSW 1009,7 22 0,0
16.08.2018 05:00:00 17,7 15,5 - - 26 14 - - SSW 1009,9 30 0,0
16.08.2018 04:00:00 18,0 15,7 - - 26 14 - - SSW 1010,8 22 0,0
16.08.2018 03:00:00 18,2 16,1 - - 24 13 - - SSW 1011,2 23 0,0
16.08.2018 02:00:00 18,6 16,3 - - 24 13 - - SW 1011,6 18 0,0
16.08.2018 01:00:00 18,2 15,8 - - 24 13 - - SSW 1011,6 18 0,0
16.08.2018 00:00:00 18,9 15,6 - - 22 12 - - SSW 1012,1 17 0,0
15.08.2018 23:00:00 18,7 14,6 - - 24 13 - - SW 1012,5 18 0,0
15.08.2018 22:00:00 18,1 14,8 - - 16 9 - - SW 1012,8 17 0,0
15.08.2018 21:00:00 18,5 14,6 - - 18 10 - - SSW 1012,8 18 0,0
15.08.2018 20:00:00 20,3 14,2 - - 28 15 - - SW 1012,8 21 0,0
15.08.2018 19:00:00 22,1 15,1 - - 31 17 48 26 SW 1012,5 18 0,0
15.08.2018 18:00:00 23,0 16,2 - - 26 14 - - SW 1012,9 18 0,0
15.08.2018 17:00:00 23,6 16,9 - - 29 16 - - WSW 1013,3 20 0,0
15.08.2018 16:00:00 24,2 16,0 - - 29 16 46 25 WSW 1013,5 20 0,0
15.08.2018 15:00:00 24,3 16,6 - - 29 16 - - SW 1013,8 20 0,0
15.08.2018 14:00:00 22,8 17,1 - - 28 15 - - SW 1014,4 18 0,0
15.08.2018 13:00:00 22,1 16,8 - - 28 15 - - WSW 1014,6 19 0,0
15.08.2018 12:00:00 20,5 16,4 - - 26 14 - - WSW 1015,1 19 0,0
15.08.2018 11:00:00 20,3 16,5 - - 24 13 - - WSW 1015,2 18 0,0
15.08.2018 10:00:00 19,7 15,6 18,9 17,4 24 13 - - WSW 1015,3 17 0,0
15.08.2018 09:00:00 17,6 15,5 - - 22 12 - - SW 1015,2 13 0,0
15.08.2018 08:00:00 16,2 15,0 - - 16 9 - - SW 1015,4 11 0,0
15.08.2018 07:00:00 14,3 13,9 - - 13 7 - - SW 1015,6 8 0,0
15.08.2018 06:00:00 13,5 13,2 - - 13 7 - - SW 1015,5 6 0,0
15.08.2018 05:00:00 13,7 13,1 - - 13 7 - - SW 1015,3 8 0,0
15.08.2018 04:00:00 14,3 13,5 - - 11 6 - - WSW 1015,5 14 0,0
15.08.2018 03:00:00 14,7 13,6 - - 13 7 - - WSW 1015,5 15 0,0
15.08.2018 02:00:00 15,9 14,4 - - 15 8 - - WSW 1015,5 22 0,0
15.08.2018 01:00:00 16,0 14,2 - - 13 7 - - WSW 1015,9 20 0,0
15.08.2018 00:00:00 16,4 14,3 - - 15 8 - - W 1015,8 14 0,0
14.08.2018 23:00:00 15,6 13,9 - - 4 2 - - SSW 1015,7 11 0,0
14.08.2018 22:00:00 18,4 15,2 - - 9 5 - - WSW 1015,6 15 0,0
14.08.2018 21:00:00 19,7 15,7 - - 11 6 - - W 1015,4 17 0,0
14.08.2018 20:00:00 20,2 16,0 - - 11 6 - - WSW 1015,0 16 0,0
14.08.2018 19:00:00 20,5 15,2 - - 15 8 - - W 1014,6 18 0,0
14.08.2018 18:00:00 22,3 15,2 - - 15 8 - - W 1014,3 18 0,0
14.08.2018 17:00:00 21,8 14,9 - - 18 10 - - W 1014,5 19 0,0
14.08.2018 16:00:00 21,9 14,4 - - 18 10 - - W 1014,5 17 0,0
14.08.2018 15:00:00 21,8 13,8 - - 21 11 - - W 1014,7 19 0,0
14.08.2018 14:00:00 20,8 14,9 - - 16 9 - - WSW 1014,7 16 0,0
14.08.2018 13:00:00 20,2 14,6 - - 15 8 - - W 1014,8 17 0,0
14.08.2018 12:00:00 20,2 14,1 - - 13 7 - - W 1014,6 16 0,0
14.08.2018 11:00:00 19,2 14,3 - - 15 8 - - W 1014,5 15 0,0
14.08.2018 10:00:00 17,7 14,2 18,7 17,4 18 10 - - W 1014,3 14 0,0
14.08.2018 09:00:00 16,2 14,4 - - 15 8 - - W 1013,8 12 0,0
14.08.2018 08:00:00 15,6 14,2 - - 13 7 - - W 1013,5 11 0,0
14.08.2018 07:00:00 15,4 13,8 - - 15 8 - - W 1013,2 13 0,0
14.08.2018 06:00:00 15,4 13,7 - - 15 8 - - W 1012,4 10 0,0
14.08.2018 05:00:00 15,5 13,8 - - 15 8 - - W 1011,9 14 0,0
14.08.2018 04:00:00 15,7 14,2 - - 11 6 - - W 1011,8 19 0,0
14.08.2018 03:00:00 15,8 14,5 - - 15 8 - - W 1011,6 20 0,0
14.08.2018 02:00:00 16,1 14,5 - - 15 8 - - WNW 1011,3 24 0,0
14.08.2018 01:00:00 16,5 15,8 - - 11 6 - - NW 1010,6 18 0,0
14.08.2018 00:00:00 16,7 16,3 - - 9 5 - - WNW 1010,4 13 0,0
13.08.2018 23:00:00 16,8 16,4 - - 5 3 - - NW 1009,9 6 0,0
13.08.2018 22:00:00 16,5 16,0 - - 8 4 - - W 1009,2 4,6 0,0
13.08.2018 21:00:00 16,7 16,0 - - 8 4 - - NW 1008,6 6 0,0
13.08.2018 20:00:00 17,8 17,1 - - 9 5 - - WNW 1007,9 8 0,0
13.08.2018 19:00:00 18,0 16,9 - - 13 7 - - WNW 1007,2 11 0,0
13.08.2018 18:00:00 18,2 16,5 - - 13 7 - - W 1006,8 16 0,0
13.08.2018 17:00:00 18,9 18,0 - - 9 5 - - SSW 1006,3 5 1,8
13.08.2018 16:00:00 18,8 17,5 - - 8 4 - - E 1006,0 4,5 2,6
13.08.2018 15:00:00 20,6 17,8 - - 9 5 - - SSE 1005,6 11 0,0
13.08.2018 14:00:00 20,4 17,6 - - 9 5 - - ESE 1005,6 13 0,0
13.08.2018 13:00:00 20,7 16,4 - - 8 4 - - NNW 1005,4 15 0,0
13.08.2018 12:00:00 20,3 17,3 - - 13 7 - - N 1005,4 12 0,0
13.08.2018 11:00:00 19,7 16,1 - - 5 3 - - NW 1005,4 17 0,0
13.08.2018 10:00:00 17,6 16,1 18,5 17,5 11 6 - - WNW 1005,2 11 0,0
13.08.2018 09:00:00 16,8 16,3 - - 9 5 - - W 1005,2 8 0,0
13.08.2018 08:00:00 16,2 15,9 - - 5 3 - - W 1005,1 7 0,0
13.08.2018 07:00:00 15,9 15,7 - - 5 3 - - SW 1004,6 7 0,0
13.08.2018 06:00:00 15,2 14,9 - - 2 1 - - WSW 1004,6 5 0,0
13.08.2018 05:00:00 15,5 15,1 - - 4 2 - - S 1004,7 7 0,0
13.08.2018 04:00:00 15,4 15,0 - - 4 2 - - SSW 1004,9 6 0,0
13.08.2018 03:00:00 15,8 15,4 - - 8 4 - - SSW 1005,3 9 0,2
13.08.2018 02:00:00 15,9 15,3 - - 4 2 - - WSW 1005,5 8 0,0
13.08.2018 01:00:00 16,3 15,5 - - 11 6 - - SW 1005,9 11 0,2
13.08.2018 00:00:00 17,3 15,6 - - 15 8 - - SSW 1006,1 23 0,0
12.08.2018 23:00:00 17,6 15,6 - - 15 8 - - SSW 1006,1 25 0,0
12.08.2018 22:00:00 18,2 15,6 - - 21 11 - - S 1006,6 24 0,0
12.08.2018 21:00:00 18,3 16,2 - - 15 8 - - SSW 1007,0 29 0,0
12.08.2018 20:00:00 17,9 16,7 - - 9 5 - - WSW 1006,9 21 1,8
12.08.2018 19:00:00 18,8 16,8 - - 9 5 - - SE 1006,9 21 0,0
12.08.2018 18:00:00 19,9 17,0 - - 8 4 - - S 1007,6 26 0,0
12.08.2018 17:00:00 19,1 16,9 - - 9 5 - - SW 1008,0 21 0,0
12.08.2018 16:00:00 17,7 16,7 - - 11 6 - - WSW 1008,5 18 0,4
12.08.2018 15:00:00 17,3 16,6 - - 22 12 - - SW 1009,2 4,3 1,2
12.08.2018 14:00:00 19,0 16,1 - - 26 14 - - SSW 1009,2 28 0,0
12.08.2018 13:00:00 19,0 16,4 - - 22 12 - - SW 1009,2 22 0,0
12.08.2018 12:00:00 19,1 16,0 - - 34 18 48 26 SSW 1009,3 29 0,0
12.08.2018 11:00:00 18,8 16,8 - - 34 18 - - SSW 1009,4 24 0,2
12.08.2018 10:00:00 17,9 16,5 18,5 17,7 28 15 - - SSW 1009,8 13 0,0
12.08.2018 09:00:00 17,8 16,0 - - 31 17 46 25 SSW 1009,9 22 0,0
12.08.2018 08:00:00 17,1 15,2 - - 35 19 48 26 SSW 1010,3 23 0,0
12.08.2018 07:00:00 17,1 15,6 - - 29 16 46 25 SSW 1010,6 22 0,0
12.08.2018 06:00:00 16,7 15,7 - - 31 17 - - S 1011,0 17 0,2
12.08.2018 05:00:00 16,6 15,6 - - 29 16 - - S 1011,6 15 0,0
12.08.2018 04:00:00 16,5 15,6 - - 31 17 - - S 1012,3 13 0,0
12.08.2018 03:00:00 16,5 15,4 - - 31 17 - - S 1013,2 15 0,0
12.08.2018 02:00:00 16,3 15,6 - - 29 16 - - S 1014,1 11 0,4
12.08.2018 01:00:00 16,1 15,5 - - 28 15 - - S 1014,9 9 1,6
12.08.2018 00:00:00 16,2 15,5 - - 31 17 - - S 1015,6 7 0,6
11.08.2018 23:00:00 16,2 15,3 - - 29 16 - - S 1016,3 11 0,6
11.08.2018 22:00:00 17,8 13,9 - - 34 18 - - SSW 1017,0 30 0,0
11.08.2018 21:00:00 18,5 12,7 - - 26 14 - - SSW 1017,4 29 0,0
11.08.2018 20:00:00 19,1 11,0 - - 21 11 - - SSW 1017,6 30 0,0
11.08.2018 19:00:00 19,8 11,1 - - 21 11 - - SSW 1018,0 19 0,0
11.08.2018 18:00:00 20,5 10,6 - - 24 13 - - SSW 1018,3 35 0,0
11.08.2018 17:00:00 21,0 9,2 - - 22 12 - - S 1018,7 30 0,0
11.08.2018 16:00:00 20,5 8,6 - - 28 15 - - SSW 1019,3 30 0,0
11.08.2018 15:00:00 20,5 10,1 - - 24 13 - - S 1019,9 35 0,0
11.08.2018 14:00:00 19,8 9,3 - - 22 12 - - S 1020,4 27 0,0
11.08.2018 13:00:00 19,1 9,6 - - 13 7 - - SSW 1021,0 30 0,0
11.08.2018 12:00:00 18,7 9,9 - - 16 9 - - SW 1021,4 29 0,0
11.08.2018 11:00:00 18,2 9,4 - - 13 7 - - W 1021,6 30 0,0
11.08.2018 10:00:00 16,9 10,3 18,2 17,7 15 8 - - WNW 1021,8 30 0,0
11.08.2018 09:00:00 14,3 11,1 - - 18 10 - - W 1021,9 22 0,0
11.08.2018 08:00:00 12,0 10,3 - - 15 8 - - WNW 1021,6 19 0,0
11.08.2018 07:00:00 9,2 8,4 - - 11 6 - - W 1021,3 17 0,0
11.08.2018 06:00:00 8,3 7,6 - - 15 8 - - W 1020,9 15 0,0
11.08.2018 05:00:00 7,9 7,1 - - 13 7 - - W 1020,5 17 0,0
11.08.2018 04:00:00 8,2 7,1 - - 16 9 - - W 1020,3 21 0,0
11.08.2018 03:00:00 8,6 7,1 - - 15 8 - - W 1020,1 27 0,0
11.08.2018 02:00:00 9,1 7,3 - - 16 9 - - W 1019,9 29 0,0
11.08.2018 01:00:00 9,7 7,8 - - 18 10 - - W 1019,6 26 0,0
11.08.2018 00:00:00 10,1 8,3 - - 15 8 - - W 1019,3 24 0,0
10.08.2018 23:00:00 11,2 9,2 - - 15 8 - - W 1018,6 23 0,0
10.08.2018 22:00:00 10,1 8,6 - - 15 8 - - WSW 1018,1 17 0,0
10.08.2018 21:00:00 11,4 8,5 - - 5 3 - - W 1017,6 28 1,2
10.08.2018 20:00:00 13,5 8,4 - - 11 6 - - WSW 1016,9 26 0,0
10.08.2018 19:00:00 15,2 7,7 - - 22 12 - - WNW 1016,5 28 0,0
10.08.2018 18:00:00 15,4 9,8 - - 18 10 - - WNW 1016,0 25 0,0
10.08.2018 17:00:00 13,7 9,3 - - 24 13 - - WNW 1016,0 26 0,0
10.08.2018 16:00:00 15,2 7,7 - - 13 7 46 25 NW 1015,4 30 0,0
10.08.2018 15:00:00 16,5 11,5 - - 24 13 - - SW 1015,5 28 0,0
10.08.2018 14:00:00 16,6 10,5 - - 37 20 46 25 SSW 1015,2 29 0,0
10.08.2018 13:00:00 16,4 11,4 - - 31 17 46 25 SSW 1015,3 24 0,0
10.08.2018 12:00:00 16,6 11,4 - - 35 19 - - SSW 1015,3 25 0,0

tt = temperature
td = dewpoint
tt -20cm = temperature -20cm
tt -100cm = temperature -100cm
ff = wind speed
fx = gusts
dd = wind direction
ppp = reduced air pressure
vv = visibility
rr = precipitation

Next stations